TimeEST,TemperatureF,Dew PointF,Humidity,Sea Level PressureIn,VisibilityMPH,Wind Direction,Wind SpeedMPH,Gust SpeedMPH,PrecipitationIn,Events,Conditions,WindDirDegrees,DateUTC
12:53 AM,18.0,10.9,74,30.11,10.0,WSW,6.9,-,N/A,,Overcast,250,2013-01-02 05:53:00
1:12 AM,17.6,8.6,68,30.07,10.0,West,5.8,-,N/A,,Scattered Clouds,270,2013-01-02 06:12:00
1:53 AM,18.0,10.9,74,30.10,10.0,West,4.6,-,N/A,,Clear,270,2013-01-02 06:53:00
2:27 AM,17.6,10.4,73,30.07,10.0,West,4.6,-,N/A,,Mostly Cloudy,270,2013-01-02 07:27:00
2:37 AM,17.6,10.4,73,30.08,10.0,WSW,5.8,-,N/A,,Scattered Clouds,250,2013-01-02 07:37:00
2:53 AM,17.1,10.9,77,30.11,10.0,WSW,5.8,-,N/A,,Clear,250,2013-01-02 07:53:00
3:32 AM,17.6,10.4,73,30.07,10.0,West,5.8,-,N/A,,Mostly Cloudy,270,2013-01-02 08:32:00
3:53 AM,17.1,10.9,77,30.12,10.0,West,6.9,-,N/A,,Overcast,270,2013-01-02 08:53:00
4:53 AM,18.0,10.9,74,30.13,10.0,WNW,5.8,-,N/A,,Mostly Cloudy,300,2013-01-02 09:53:00
5:53 AM,16.0,10.9,81,30.14,10.0,West,3.5,-,N/A,,Clear,270,2013-01-02 10:53:00
6:53 AM,12.9,9.0,84,30.15,10.0,Calm,Calm,-,N/A,,Clear,0,2013-01-02 11:53:00
7:53 AM,12.9,10.9,92,30.17,10.0,SW,4.6,-,N/A,,Clear,230,2013-01-02 12:53:00
8:53 AM,12.9,9.0,84,30.16,10.0,Calm,Calm,-,N/A,,Clear,0,2013-01-02 13:53:00
9:13 AM,15.8,10.4,79,30.13,10.0,SW,4.6,-,N/A,,Mostly Cloudy,230,2013-01-02 14:13:00
9:53 AM,17.1,10.9,77,30.17,10.0,WSW,3.5,-,N/A,,Overcast,240,2013-01-02 14:53:00
10:53 AM,21.0,14.0,74,30.94,10.0,WSW,5.8,-,N/A,,Overcast,250,2013-01-02 15:53:00
11:53 AM,21.9,14.0,72,30.94,10.0,WSW,4.6,-,N/A,,Overcast,240,2013-01-02 16:53:00
12:53 PM,23.0,14.0,68,30.19,10.0,WSW,5.8,-,N/A,,Overcast,240,2013-01-02 17:53:00
1:53 PM,24.1,16.0,71,30.19,10.0,SW,5.8,-,N/A,,Overcast,230,2013-01-02 18:53:00
2:53 PM,24.1,16.0,71,30.18,10.0,SW,6.9,-,N/A,,Overcast,220,2013-01-02 19:53:00
3:53 PM,24.1,17.1,75,30.19,10.0,SSW,4.6,-,N/A,,Overcast,200,2013-01-02 20:53:00
4:05 PM,24.8,17.6,74,30.15,10.0,SSW,4.6,-,N/A,,Overcast,210,2013-01-02 21:05:00
4:53 PM,24.1,17.1,75,30.19,10.0,SSW,3.5,-,N/A,,Overcast,200,2013-01-02 21:53:00
5:53 PM,24.1,17.1,75,30.93,10.0,WSW,3.5,-,N/A,,Overcast,240,2013-01-02 22:53:00
6:53 PM,24.1,18.0,77,30.22,10.0,SW,6.9,-,N/A,,Overcast,230,2013-01-02 23:53:00
7:53 PM,24.1,18.0,77,30.22,10.0,SW,5.8,-,0.00,,Overcast,230,2013-01-03 00:53:00
8:09 PM,24.8,17.6,74,30.19,10.0,WSW,8.1,-,N/A,,Overcast,240,2013-01-03 01:09:00
8:28 PM,24.8,17.6,74,30.19,10.0,SW,10.4,-,N/A,,Overcast,230,2013-01-03 01:28:00
8:53 PM,24.1,17.1,75,30.21,10.0,SW,5.8,-,N/A,,Overcast,220,2013-01-03 01:53:00
9:53 PM,24.1,17.1,75,30.20,10.0,SW,6.9,-,N/A,,Overcast,230,2013-01-03 02:53:00
10:53 PM,24.1,17.1,75,30.20,10.0,SW,5.8,-,N/A,,Overcast,220,2013-01-03 03:53:00
11:53 PM,23.0,17.6,80,30.16,10.0,SW,5.8,-,N/A,,Overcast,220,2013-01-03 04:53:00